Content
SEND FEEDBACK

Daily
Averages
Monthly
Summary
United States of America

MARIAH HILL, INDIANA


Home > North America > United States > Indiana
Elevation: 426 feet     Latitude: 38 10N     Longitude: 086 48W

WEATHER
 
SELECT A DAY
Number of Records: 431,109;   Date Range: 1/1/95 - 7/7/14
 
SHARE

PRINT THIS DATA

[ ← Previous Day ]
WEATHER ALMANAC - FEBRUARY 13, 2013
[ Next Day → ]
[ °C ]   °F
Weather ElementAverageHighLow
Temperature36.8 °F42.8 °F (3:35 pm)32 °F (8:15 am)
Dewpoint29.7 °F32 °F (1:35 pm)26.6 °F (7:35 am)
Humidity76.1 %87 % (8:15 am)61 % (3:55 pm)
Barometer29.88 in29.93 in (10:55 pm)29.81 in (5:56 am)
Wind Speed7.2 mph10.4 mph (4:55 am)
Wind Gust17.3 mph (4:55 am)
Weather ElementAverage
Visibility8.2 mi
Wind DirectionSSW (218.6 °)

Weather ElementTotal
Precipitation0.14 in
Heating Degree Days27.6 (Base 65)
Averaged from 65 records on February 13, 2013
WEATHER CONDITIONS BREAKOUT
WIND DIRECTION BREAKOUT
WEATHER BY HOUR - FEBRUARY 13, 2013
[ °C ]   °F
Local TimeTemperatureDewpointHumidityBarometerVisibilityWind DirectionWind SpeedGust SpeedPrecipitationEventsConditions
12:55 AM37.4 °F30.2 °F75 %29.91 in10.0 miNNE (20°)5.8 mphPartly Cloudy
1:15 AM37.4 °F30.2 °F75 %29.90 in10.0 miNorth (10°)6.9 mphMostly Cloudy
1:35 AM39.2 °F30.2 °F70 %29.90 in10.0 miNorth (360°)6.9 mphMostly Cloudy
2:15 AM39.2 °F30.2 °F70 %29.89 in10.0 miNorth (360°)8.1 mphPartly Cloudy
2:35 AM39.2 °F28.4 °F65 %29.88 in10.0 miNorth (10°)6.9 mphMostly Cloudy
2:55 AM37.4 °F30.2 °F75 %29.87 in10.0 miNorth (10°)9.2 mphMostly Cloudy
3:15 AM37.4 °F30.2 °F75 %29.86 in10.0 miNNE (20°)8.1 mphScattered Clouds
3:55 AM37.4 °F28.4 °F70 %29.85 in10.0 miNorth (350°)6.9 mphScattered Clouds
4:15 AM39.2 °F28.4 °F65 %29.84 in10.0 miNorth (360°)6.9 mphScattered Clouds
4:35 AM37.4 °F28.4 °F70 %29.84 in10.0 miNorth (350°)9.2 mphClear
4:55 AM37.4 °F28.4 °F70 %29.82 in10.0 miNorth (360°)10.4 mph17.3 mphMostly Cloudy
5:15 AM37.4 °F28.4 °F70 %29.83 in10.0 miNorth (360°)8.1 mphOvercast
5:35 AM37.4 °F28.4 °F70 %29.82 in10.0 miNorth (10°)9.2 mphMostly Cloudy
5:56 AM37.4 °F28.4 °F70 %29.81 in10.0 miNorth (360°)9.2 mphOvercast
6:15 AM37.4 °F28.4 °F70 %29.82 in10.0 miNNW (340°)5.8 mphOvercast
6:35 AM35.6 °F28.4 °F75 %29.83 in10.0 miNW (320°)5.8 mphMostly Cloudy
7:15 AM35.6 °F28.4 °F75 %29.85 in10.0 miNNW (340°)8.1 mphScattered Clouds
7:35 AM35.6 °F26.6 °F70 %29.86 in9.0 miNNW (340°)5.8 mphMostly Cloudy
7:55 AM33.8 °F28.4 °F81 %29.86 in2.0 miNorth (350°)6.9 mphOvercast
8:15 AM32.0 °F28.4 °F87 %29.87 in1.2 miNorth (350°)8.1 mphOvercast
8:35 AM32.0 °F28.4 °F87 %29.87 in0.8 miNNW (340°)9.2 mphOvercast
8:55 AM32.0 °F28.4 °F87 %29.88 in0.8 miNorth (350°)6.9 mph0.03 inOvercast
9:35 AM32.0 °F28.4 °F87 %29.88 in1.0 miNorth (10°)6.9 mph0.04 inOvercast
9:55 AM32.0 °F28.4 °F87 %29.88 in1.0 miNorth (360°)5.8 mph0.04 inOvercast
10:15 AM32.0 °F28.4 °F87 %29.89 in0.5 miNNW (340°)3.5 mph0.01 inOvercast
10:35 AM32.0 °F28.4 °F87 %29.89 in0.8 miNNE (20°)4.6 mph0.01 inOvercast
10:55 AM33.8 °F30.2 °F87 %29.89 in1.0 miNorth (10°)3.5 mph0.01 inOvercast
11:15 AM33.8 °F30.2 °F87 %29.89 in3.0 miCalmOvercast
11:35 AM33.8 °F30.2 °F87 %29.90 in2.0 miWNW (290°)3.5 mphOvercast
11:55 AM33.8 °F30.2 °F87 %29.90 in2.0 miNW (310°)6.9 mphOvercast
12:15 PM33.8 °F30.2 °F87 %29.89 in2.0 miWNW (290°)4.6 mphOvercast
12:35 PM33.8 °F30.2 °F87 %29.88 in5.0 miSW (230°)3.5 mphPartly Cloudy
12:55 PM33.8 °F30.2 °F87 %29.87 in8.0 miSSW (210°)5.8 mphPartly Cloudy
1:15 PM35.6 °F30.2 °F81 %29.88 in10.0 miWSW (240°)5.8 mphClear
1:35 PM37.4 °F32.0 °F81 %29.87 in10.0 miSW (230°)8.1 mphMostly Cloudy
1:55 PM37.4 °F32.0 °F81 %29.86 in10.0 miSW (230°)5.8 mphMostly Cloudy
2:15 PM39.2 °F32.0 °F75 %29.86 in10.0 miSW (220°)9.2 mphMostly Cloudy
2:35 PM39.2 °F30.2 °F70 %29.87 in10.0 miSW (220°)8.1 mphMostly Cloudy
2:55 PM41.0 °F32.0 °F70 %29.87 in10.0 miWSW (240°)8.1 mphScattered Clouds
3:15 PM41.0 °F30.2 °F65 %29.86 in10.0 miWSW (250°)6.9 mphPartly Cloudy
3:35 PM42.8 °F32.0 °F66 %29.87 in10.0 miWSW (250°)6.9 mphScattered Clouds
3:55 PM42.8 °F30.2 °F61 %29.87 in10.0 miWSW (240°)5.8 mphPartly Cloudy
4:15 PM42.8 °F30.2 °F61 %29.87 in10.0 miWSW (250°)6.9 mphPartly Cloudy
4:35 PM42.8 °F30.2 °F61 %29.87 in10.0 miWSW (240°)8.1 mphClear
4:55 PM42.8 °F30.2 °F61 %29.88 in10.0 miWSW (240°)9.2 mphClear
5:15 PM42.8 °F30.2 °F61 %29.87 in10.0 miSSW (210°)9.2 mphClear
5:35 PM41.0 °F30.2 °F65 %29.88 in10.0 miSSW (200°)10.4 mphClear
5:55 PM41.0 °F30.2 °F65 %29.88 in10.0 miSSW (210°)10.4 mphClear
6:15 PM39.2 °F30.2 °F70 %29.89 in10.0 miSouth (190°)6.9 mphClear
6:35 PM37.4 °F30.2 °F75 %29.89 in10.0 miSouth (180°)6.9 mphClear
6:55 PM37.4 °F30.2 °F75 %29.89 in10.0 miSouth (180°)5.8 mphClear
7:15 PM37.4 °F28.4 °F70 %29.90 in10.0 miSouth (170°)5.8 mphClear
7:55 PM35.6 °F28.4 °F75 %29.91 in10.0 miSouth (170°)6.9 mphClear
8:15 PM35.6 °F28.4 °F75 %29.91 in10.0 miSouth (170°)5.8 mphClear
8:35 PM35.6 °F30.2 °F81 %29.91 in10.0 miSouth (170°)8.1 mphClear
8:55 PM35.6 °F30.2 °F81 %29.91 in10.0 miSouth (170°)8.1 mphClear
9:15 PM35.6 °F30.2 °F81 %29.92 in10.0 miSouth (170°)6.9 mphClear
9:35 PM35.6 °F30.2 °F81 %29.92 in10.0 miSouth (170°)8.1 mphClear
9:55 PM35.6 °F30.2 °F81 %29.92 in10.0 miSouth (180°)9.2 mphClear
10:15 PM35.6 °F30.2 °F81 %29.92 in10.0 miSouth (180°)10.4 mphClear
10:35 PM35.6 °F30.2 °F81 %29.92 in10.0 miSouth (180°)10.4 mphClear
10:55 PM35.6 °F30.2 °F81 %29.93 in10.0 miSouth (180°)6.9 mphClear
11:15 PM33.8 °F30.2 °F87 %29.93 in10.0 miSouth (180°)8.1 mphClear
11:35 PM33.8 °F30.2 °F87 %29.93 in10.0 miSouth (180°)9.2 mphClear
11:55 PM35.6 °F30.2 °F81 %29.93 in10.0 miSouth (180°)9.2 mphClear
Hourly data recorded from KHNB, located miles away from Mariah Hill, Indiana







STORIES FROM OUR PARTNERS